Voltar ao catálogo

DELTA 1 DEB

AtivoSSO
NORAD 12171·DEBRIS·🇺🇸 United States

Lançado Mar 5, 1978 de Vandenberg Space Force Base

Loading…

Próximas Passagens (próximas 24 horas)

TLE

AtualizadoSource: Space-Track

Época: Sep 14, 2026, 07:21 UTC

1 12171U 78026L   26257.30646131 -.00000080  00000-0 -20884-4 0  9997
2 12171  99.2340 277.0597 0036219 228.3409 197.0218 14.04097710334952

Acompanhe DELTA 1 DEB em tempo real com AllMySat

Download on the App Store